Presure
325 329 327 326 346 362 370 388 369 378 421 239 218 191 77 180 172 80 168 86 125 133 95 91 95 94 158 101 179 136 144 140 143 141 148 155 143 157 129 155 147 169 110 134 180
327 310 309 325 328 338 344 342 342 351 403 265 250 205 184 184 149 151 180 80 115 95 92 96 101 109 134 186 154 115 117 98 143 121 142 139 149 150 97 162 159 93 153 138 156
304 318 312 313 319 329 321 325 329 355 359 332 269 248 209 183 146 168 79 179 135 112 88 90 98 95 103 147 112 105 96 98 102 98 102 146 132 145 135 136 160 99 114 157 106
296 295 308 299 304 313 335 323 319 340 337 330 197 317 224 195 183 185 156 162 183 184 183 90 95 159 92 97 96 91 195 97 102 99 136 101 109 105 98 91 121 107 103 96 142
275 282 269 294 303 309 339 333 335 327 308 315 175 207 342 199 187 181 176 127 147 84 181 182 179 94 95 100 191 91 96 101 99 99 98 100 101 106 128 129 89 100 124 107 104
281 257 286 296 233 294 322 342 324 323 315 297 292 300 205 152 198 185 182 76 181 179 187 133 184 181 175 97 95 101 95 101 99 97 90 96 107 104 107 172 164 104 167 97 110
270 273 275 251 271 289 297 338 318 316 325 258 290 289 116 359 205 196 184 82 70 75 185 185 191 178 166 128 94 77 101 100 97 106 182 92 102 100 119 145 97 102 114 96 181
287 284 284 300 258 284 291 325 313 303 275 311 168 312 137 169 234 200 192 187 175 150 76 174 166 79 82 174 143 112 112 112 117 90 96 135 152 94 161 103 79 104 112 101 120
306 321 293 280 279 284 294 283 291 287 200 304 330 319 321 171 329 135 172 192 188 185 181 128 82 82 76 130 78 74 181 136 182 132 168 111 183 187 172 85 166 190 122 122 133
311 314 316 285 274 293 295 280 281 284 155 297 311 328 325 192 339 148 203 193 192 189 183 183 185 177 84 83 82 105 83 177 80 81 86 77 143 109 133 85 175 101 101 78 71
327 322 308 309 281 289 307 289 282 282 313 303 190 340 318 321 342 144 203 201 192 189 189 184 184 185 180 82 186 178 186 65 80 82 84 85 151 90 59 87 81 196 84 85 75
312 324 308 294 321 287 306 318 279 325 321 325 157 276 264 185 306 243 224 202 201 191 186 183 184 186 182 175 177 176 185 182 145 185 124 185 103 78 181 146 100 85 93 92 83
335 311 253 194 289 261 306 314 313 301 283 307 306 316 290 131 238 153 205 170 200 202 190 170 175 181 189 172 181 175 184 187 186 182 193 171 169 179 188 200 192 179 198 142 95
141 211 298 320 243 124 298 297 297 285 295 125 213 295 306 308 295 274 245 229 205 194 195 198 190 188 184 185 186 187 180 177 181 182 168 177 184 190 182 178 197 203 202 206 209
237 271 141 309 306 131 105 302 287 214 291 286 292 289 294 267 276 269 257 248 210 208 194 192 194 189 187 173 182 169 193 168 185 175 167 158 195 170 171 191 197 189 211 218 221
218 236 245 313 147 126 307 130 141 299 283 182 133 226 279 268 237 261 131 129 232 171 146 184 190 175 116 180 178 131 191 187 173 193 174 169 177 155 171 198 180 215 219 232 254
196 209 228 236 310 311 308 294 177 111 295 277 227 222 221 219 102 255 199 172 130 229 182 205 198 179 136 186 177 182 137 178 173 174 175 196 202 204 212 207 213 226 254 264 288
180 166 204 213 232 217 302 315 296 302 251 277 274 133 128 179 255 142 249 216 179 146 210 199 147 197 198 188 158 141 153 179 171 187 198 196 204 208 212 224 250 261 299 292 310
215 174 184 193 204 221 225 296 304 292 179 256 274 166 263 131 240 252 236 149 238 175 154 220 181 143 203 189 183 196 166 198 208 202 205 209 215 223 247 270 299 273 180 256 296
211 201 169 183 183 194 202 218 225 198 295 280 276 274 262 124 136 128 136 146 243 236 232 215 158 154 148 159 206 205 204 206 215 223 232 247 272 295 290 210 276 277 320 335 265
180 193 196 188 176 179 182 188 197 209 218 228 255 271 203 274 267 256 139 142 144 206 220 219 218 213 214 216 217 242 252 255 278 299 312 303 214 273 274 293 319 307 242 258 211
192 189 146 209 204 194 173 174 181 185 189 191 201 212 221 234 244 301 175 293 291 287 288 291 288 291 295 296 303 338 314 313 299 263 274 297 295 352 255 252 218 210 206 203 204
161 181 186 196 191 202 187 187 176 170 174 179 179 184 185 186 193 204 214 221 227 232 239 241 240 237 240 241 240 239 234 235 228 223 221 217 219 203 197 194 180 188 183 193 174
180 211 172 155 171 194 194 198 176 174 190 175 168 169 175 176 176 176 177 180 195 199 194 199 205 204 200 201 194 193 191 195 184 180 176 177 180 177 184 187 180 172 171 176 182
183 195 201 196 191 193 185 188 178 191 184 169 182 178 188 172 170 163 164 165 173 174 177 181 187 185 181 181 183 184 184 181 181 183 180 177 184 189 188 175 183 180 186 183 181
211 206 211 141 204 186 154 199 176 167 172 188 193 156 170 193 191 194 196 170 200 184 171 179 179 176 178 181 179 180 184 174 175 174 190 172 172 194 198 193 192 182 195 187 181
186 208 200 207 210 185 207 172 130 181 167 178 138 112 166 188 190 188 149 191 175 191 192 193 187 189 177 189 171 172 193 182 161 161 159 164 174 177 169 168 172 180 175 191 181
Wind_Speed
23 17 13 16 13 5 12 27 39 52 61 115 106 96 26 89 82 24 72 25 48 50 32 23 25 25 56 25 66 48 56 53 50 48 47 50 43 49 33 48 49 47 25 37 50
15 12 16 19 13 9 16 30 34 41 55 64 119 105 95 96 68 68 83 22 42 33 29 30 33 34 44 70 53 36 33 21 51 34 50 47 50 49 21 51 53 15 51 39 50
19 19 19 22 11 12 16 27 31 41 55 78 92 114 104 95 72 72 29 81 56 41 26 26 33 29 34 60 36 25 21 23 25 23 22 54 41 50 44 40 53 23 27 50 28
27 34 30 19 19 7 9 28 35 50 43 51 89 95 112 104 95 92 65 72 83 81 79 31 34 58 29 29 28 24 66 27 28 24 50 24 26 30 25 18 29 29 26 24 51
30 24 24 25 29 24 13 22 46 57 68 63 47 53 80 104 98 89 80 50 62 31 80 79 73 34 35 36 65 27 29 31 30 28 27 28 28 29 44 42 18 29 41 29 30
25 37 22 22 11 24 31 24 38 50 68 73 79 82 34 64 101 94 89 16 86 80 84 51 76 68 61 37 33 36 32 34 33 32 26 32 35 32 33 60 57 29 48 31 35
35 30 25 30 20 22 22 21 38 44 47 61 75 83 35 61 106 101 92 25 14 17 81 77 78 66 58 46 33 16 38 37 35 37 50 27 38 36 43 47 32 31 36 36 53
16 16 18 13 34 19 20 13 36 41 45 51 33 62 48 37 112 104 98 94 67 60 19 59 56 21 19 58 47 41 40 39 41 31 36 40 43 35 46 38 22 38 37 39 41
25 27 11 18 9 11 25 27 28 33 13 34 46 60 60 50 82 38 68 95 91 87 79 53 32 32 21 38 22 18 57 37 49 35 40 35 47 48 50 29 53 59 43 43 47
41 34 13 8 30 12 12 18 23 20 36 32 34 51 55 51 78 47 102 93 94 89 78 78 77 58 39 38 35 40 36 44 32 33 37 29 44 40 47 36 58 28 30 31 21
48 35 30 19 27 20 12 14 12 13 12 33 20 49 53 62 71 40 99 99 89 85 88 76 76 76 61 42 67 53 65 15 34 38 42 43 45 53 11 43 36 65 42 46 29
56 41 31 32 21 21 19 21 19 24 30 32 21 41 49 49 72 78 102 98 98 86 76 69 72 74 64 41 48 45 62 56 39 64 47 58 44 35 50 51 36 47 49 50 51
55 51 31 13 28 25 32 36 34 35 31 38 42 46 57 32 59 38 62 26 92 92 71 30 41 57 77 37 54 45 61 67 63 50 70 39 42 56 63 71 60 58 74 61 58
22 32 47 40 23 4 34 40 37 36 38 24 25 47 53 62 73 81 73 91 92 78 79 84 76 72 62 65 66 70 42 40 44 52 49 47 63 71 58 59 71 76 76 81 81
76 82 17 48 38 2 9 36 37 25 35 40 35 45 56 61 70 75 78 77 89 89 73 72 77 71 68 28 47 29 77 34 60 41 48 56 65 51 71 73 74 64 85 88 86
66 73 73 46 10 8 29 3 19 31 40 27 22 38 57 62 58 68 23 23 79 55 47 69 71 33 37 45 47 32 77 67 53 64 45 52 51 57 63 82 64 88 86 88 83
51 58 66 69 37 28 26 27 15 13 41 40 36 38 37 45 18 61 47 39 27 71 48 79 75 67 34 68 38 58 38 48 46 45 51 77 80 84 85 80 84 88 83 79 67
42 35 52 56 63 41 29 23 25 34 26 34 33 23 22 23 47 24 55 52 43 39 63 60 30 69 72 61 43 40 42 48 47 67 72 72 80 85 84 86 84 79 66 61 53
46 34 37 42 48 52 53 25 17 19 12 16 21 23 27 25 34 42 43 18 57 34 36 66 51 30 68 61 57 75 50 77 80 74 77 79 82 83 82 77 65 58 48 44 40
43 37 26 33 32 38 42 43 47 28 11 12 10 15 13 13 23 18 25 27 48 52 55 50 33 35 36 41 71 73 74 74 77 75 74 74 71 63 60 50 50 43 45 31 23
26 31 31 25 23 25 26 29 33 33 36 37 19 9 13 14 19 22 28 28 27 39 43 46 50 55 57 61 64 67 69 70 67 63 57 49 53 49 46 45 46 27 23 21 27
31 27 21 33 28 22 16 17 19 20 21 21 20 22 23 20 18 22 20 29 33 37 40 43 46 48 50 53 53 47 49 49 44 35 35 38 38 39 20 19 25 29 32 34 33
21 23 23 28 21 25 16 13 10 8 9 8 8 8 7 5 4 6 6 5 4 3 2 3 6 10 10 12 14 15 18 17 21 26 28 32 33 36 34 35 36 35 35 36 35
20 24 20 16 9 24 20 16 6 7 4 3 4 4 4 6 9 11 12 13 12 15 18 20 20 22 25 27 29 30 31 31 34 33 38 36 40 32 37 41 41 37 39 42 45
19 30 32 31 27 25 16 18 10 16 12 12 10 12 11 15 16 19 20 22 23 25 26 28 29 31 32 33 35 37 37 36 39 38 41 41 44 42 40 46 49 48 47 48 49
28 34 27 25 27 26 23 30 17 17 18 21 22 19 22 19 20 21 22 28 23 30 34 35 35 36 38 38 41 47 43 41 44 42 45 48 51 47 48 48 48 53 52 57 58
38 33 35 32 31 30 33 27 21 31 27 23 21 18 25 28 29 29 30 32 32 34 36 39 38 39 47 40 44 54 51 47 45 45 47 53 55 58 58 58 59 60 62 61 63
Wind_Direction
311 313 324 324 342 22 191 179 196 203 204 224 224 218 220 222 224 206 230 214 226 227 221 220 222 226 241 230 245 230 235 240 241 246 248 250 250 256 250 261 263 268 262 261 278
67 50 27 23 21 71 148 172 181 194 197 209 219 216 218 219 222 223 225 215 225 214 219 222 223 229 238 243 241 232 230 217 241 235 247 252 254 256 235 263 263 255 266 265 273
26 38 27 26 47 38 176 176 182 183 181 202 212 216 215 218 217 221 217 227 225 226 220 222 219 221 230 229 231 226 227 226 228 230 229 249 257 258 259 258 265 245 248 268 257
44 48 37 55 44 64 146 178 177 169 155 181 214 210 212 212 218 220 223 225 228 230 233 222 220 237 224 227 224 228 252 228 231 229 249 232 236 241 240 249 255 249 246 252 275
33 30 35 62 46 61 74 178 174 165 179 176 206 208 206 210 213 220 223 226 225 214 232 235 237 222 225 231 247 231 227 228 229 233 234 237 236 242 255 258 249 242 257 250 246
19 27 30 54 93 54 55 153 165 169 176 187 197 199 203 208 209 215 219 226 225 230 231 232 237 239 240 229 231 231 233 231 229 232 245 238 249 240 248 272 272 250 271 250 248
9 5 11 43 56 56 65 88 162 163 170 189 197 202 200 196 207 211 216 226 216 237 232 234 237 238 239 235 232 226 235 234 233 239 264 247 240 239 262 265 242 253 251 249 280
7 349 1 69 32 53 56 110 133 154 168 177 216 191 213 209 203 209 213 218 223 228 242 231 235 238 234 245 247 239 242 242 243 245 243 263 267 250 272 241 279 242 265 259 271
31 21 26 30 30 66 96 104 124 150 155 168 184 186 189 199 192 209 210 216 220 224 228 235 241 241 239 243 241 237 258 258 265 261 267 263 274 278 280 264 277 281 269 274 280
36 37 85 39 60 81 108 116 137 148 212 161 168 181 185 192 185 207 209 215 218 222 228 232 236 240 241 243 248 252 248 263 253 257 255 260 278 272 275 263 283 276 276 281 273
39 51 50 64 62 72 124 111 145 145 171 155 183 169 180 182 180 201 210 213 219 222 224 231 236 240 247 245 251 257 260 255 257 256 255 255 271 257 303 260 271 292 276 277 271
40 46 51 49 68 95 100 123 116 134 144 142 185 166 175 186 181 192 206 213 216 222 226 232 235 240 248 249 255 260 262 271 253 274 271 282 270 278 284 282 282 270 275 277 276
42 45 51 63 79 94 97 105 108 119 142 135 148 155 170 199 181 186 196 205 217 219 224 227 238 243 242 243 259 255 265 266 269 278 277 270 272 286 287 288 287 272 292 278 270
39 46 45 59 70 307 98 105 106 119 129 171 159 156 167 173 180 189 195 207 215 223 226 226 235 238 245 250 253 257 265 267 274 277 262 276 279 288 285 275 288 294 293 296 296
37 42 53 52 56 20 217 106 113 136 125 146 148 163 167 171 182 188 195 202 214 218 228 233 234 242 245 251 259 255 257 253 275 271 261 263 284 275 281 291 293 286 294 294 296
39 40 43 50 87 150 83 218 124 129 143 164 183 163 168 177 187 190 220 217 210 223 224 228 238 240 236 244 247 261 262 267 259 275 272 272 274 274 278 288 286 291 292 293 295
37 41 43 45 54 68 88 104 139 185 144 156 168 176 178 184 226 192 205 209 231 216 218 231 235 237 251 248 261 259 260 267 265 265 271 285 286 285 285 288 289 290 292 294 294
31 40 43 46 49 52 75 113 122 141 147 157 166 189 192 196 192 210 202 211 216 228 224 229 244 237 244 244 255 253 264 269 269 279 283 283 285 284 285 287 289 291 290 295 294
29 35 36 46 48 51 54 68 120 129 180 154 164 188 184 209 199 204 208 227 218 226 237 233 241 250 245 259 265 262 265 270 273 277 279 282 282 283 284 286 287 291 288 287 292
20 34 37 33 45 50 54 56 60 74 131 154 169 188 198 236 220 233 228 234 226 230 234 238 244 247 255 260 260 264 268 271 273 276 279 281 282 282 283 285 286 291 292 285 282
25 23 30 35 38 40 51 58 59 61 68 65 83 179 176 216 228 231 235 240 244 244 247 251 253 256 257 260 263 266 269 272 275 279 280 280 278 280 284 289 290 281 282 277 280
2 10 8 12 25 44 42 46 51 64 66 67 71 83 77 81 82 228 215 238 243 247 251 253 256 260 262 266 268 267 270 271 277 278 281 281 282 277 290 295 274 271 278 283 276
333 347 358 0 11 10 15 43 42 49 48 58 84 88 91 85 96 123 127 127 141 176 138 225 247 243 252 254 257 263 262 265 259 263 270 270 273 277 284 283 280 288 291 286 285
339 338 325 339 331 353 357 1 347 338 31 315 264 249 257 240 234 233 240 251 266 254 249 247 244 249 253 257 260 263 264 265 268 268 271 272 275 274 283 280 284 278 280 282 283
313 329 327 330 326 331 329 334 309 328 312 279 271 264 262 253 254 252 256 257 260 259 260 264 268 269 270 270 269 267 266 268 268 271 275 279 278 284 274 278 279 277 275 274 275
315 315 313 295 312 318 283 315 288 274 302 307 304 299 270 286 273 277 272 260 269 261 265 267 268 269 269 270 273 272 269 270 276 281 278 283 283 278 277 275 271 274 274 273 270
309 311 314 312 312 306 308 288 273 296 272 280 279 257 285 288 288 276 280 282 281 275 274 271 264 265 263 263 264 269 279 271 267 272 273 276 279 279 277 275 273 274 273 275 275